REICHNBCH Weather Reports


time (UTC)temp
C
wind
direction
speed
KPH
gust
KPH
rain 1hr
cm
rain 24hr
cm
rain mn
cm
humidity
%
barometer
mb
20260507143212 13 341 9.7 0.0 0.00 0.00 0.71 81 1016.6
20260507140210 12 355 3.2 0.0 0.00 0.00 0.71 81 1016.6
20260507133210 12 344 8.0 0.0 0.00 0.00 0.71 82 1016.7
20260507130210 12 323 14.5 0.0 0.00 0.00 0.71 81 1016.4
20260507123210 13 269 4.8 0.0 0.00 0.00 0.71 84 1016.3
20260507120211 12 232 8.0 0.0 0.00 0.00 0.71 84 1016.3
20260507113210 13 269 8.0 0.0 0.00 0.00 0.71 80 1016.3
20260507110210 10 318 4.8 0.0 0.00 0.00 0.71 81 1016.6
20260507103216 11 360 6.4 0.0 0.00 0.00 0.71 79 1016.5
20260507100212 10 0 6.4 0.0 0.00 0.00 0.71 78 1016.3
20260507093211 10 294 8.0 0.0 0.00 0.00 0.71 74 1016.2
20260507090211 10 346 9.7 0.0 0.00 0.00 0.71 74 1015.8
20260507083212 10 319 14.5 0.0 0.00 0.00 0.69 74 1015.6
20260507080211 10 290 8.0 0.0 0.00 0.00 0.69 74 1015.4
20260507073212 10 34 8.0 0.0 0.00 0.00 0.66 74 1014.9
20260507070212 9 284 3.2 0.0 0.00 0.00 0.66 74 1014.7
20260507063211 9 344 6.4 0.0 0.00 0.00 0.51 75 1014.4
20260507060211 9 286 6.4 0.0 0.00 0.00 0.38 75 1014.1
20260507053211 9 253 8.0 0.0 0.00 0.00 0.36 75 1013.8
20260507050213 9 277 9.7 0.0 0.00 0.00 0.36 75 1013.5
20260507043211 9 279 4.8 0.0 0.00 0.00 0.33 75 1013.1
20260507040216 9 272 6.4 0.0 0.00 0.00 0.28 75 1012.8
20260507033211 8 304 8.0 0.0 0.00 0.00 0.23 75 1012.7
20260507030211 9 286 4.8 0.0 0.00 0.00 0.23 75 1012.3
20260507023211 9 14 6.4 0.0 0.00 0.00 0.15 75 1012.2
20260507020211 9 313 4.8 0.0 0.00 0.00 0.10 75 1012.1
20260507013212 9 316 4.8 0.0 0.00 0.00 0.05 75 1011.9
20260507010211 9 355 4.8 0.0 0.00 0.00 0.05 75 1011.7
20260507003209 9 207 3.2 0.0 0.00 0.00 0.05 75 1011.6
20260507000209 9 305 1.6 0.0 0.00 0.00 0.05 75 1011.7
20260506233209 10 277 3.2 0.0 0.00 0.00 0.03 75 1011.7
20260506230209 10 272 8.0 0.0 0.00 0.00 0.03 75 1011.7
20260506223209 10 311 9.7 0.0 0.00 0.00 0.00 75 1011.6
20260506220209 10 336 9.7 0.0 0.00 0.00 0.00 75 1011.5
20260506213209 10 302 1.6 0.0 0.00 0.00 0.89 75 1011.2
20260506210210 10 288 0.0 0.0 0.00 0.00 0.89 75 1011.1
20260506203210 10 277 6.4 0.0 0.00 0.00 0.89 75 1011.0
20260506200210 10 294 9.7 0.0 0.00 0.00 0.89 75 1010.7
20260506193215 10 317 4.8 0.0 0.00 0.00 0.89 75 1010.5
20260506190211 10 350 8.0 0.0 0.00 0.00 0.89 75 1009.9
20260506183209 10 274 8.0 0.0 0.00 0.00 0.86 75 1009.6
20260506180216 11 250 8.0 0.0 0.00 0.00 0.81 75 1009.2
20260506173210 12 261 6.4 0.0 0.00 0.00 0.79 75 1008.9
20260506170215 12 270 0.0 0.0 0.00 0.00 0.74 75 1008.7
20260506163210 12 288 1.6 0.0 0.00 0.00 0.66 76 1008.6
20260506160210 12 328 3.2 0.0 0.00 0.00 0.56 77 1008.5
20260506153210 12 229 6.4 0.0 0.00 0.00 0.48 79 1008.3
20260506150210 12 315 3.2 0.0 0.00 0.00 0.23 81 1008.3